Regional Weather Roundup
Issued by NWS

Home | Current Version | Previous Version | Text Only | Print | Product List | Glossary On
Versions: 1 2 3 4 5 6 7 8 9 10 11 12 13 14 15 16 17 18 19 20 21 22 23 24 25 26 27 28 29 30 31 32 33 34 35 36 37 38 39 40 41 42 43 44 45 46 47 48 49 50
626
ASUS44 KJAN 010403
RWRMS

MISSISSIPPI HOURLY WEATHER ROUNDUP
NATIONAL WEATHER SERVICE JACKSON MS
1100 PM CDT TUE MAR 31 2015

NOTE: "FAIR: INDICATES FEW OR NO CLOUDS BELOW 12,000 FEET WITH NO
SIGNIFICANT WEATHER AND/OR OBSTRUCTIONS TO VISIBILITY.

MSZ001>002-007>008-010>013-018>021-025>028-034>036-010500-
NORTHWEST MISSISSIPPI

CITY           SKY/WX    TMP DP  RH WIND       PRES   REMARKS
CLARKSDALE       N/A     64  63  94 SW7       29.96S
CLEVELAND      FAIR      62  62  99 SW6       29.96F
GREENWOOD      CLEAR     64  57  78 SW5       29.96R
GREENVILLE     CLEAR     62  59  90 SW3       29.96S
OLIVE BRANCH   CLEAR     64  64 100 CALM      29.94S
OXFORD         FAIR      63  57  82 SW5       29.97F
TUNICA         MOCLDY    64  61  88 S6        29.94R
$$

MSZ003>006-009-014>017-022>024-029>033-037>039-010500-
NORTHEAST MISSISSIPPI

CITY           SKY/WX    TMP DP  RH WIND       PRES   REMARKS
COLUMBUS AFB   MOCLDY    59  59 100 S2        29.96F
CORINTH        RAIN      59  57  94 E13       29.95F
GOLDN TRIANGLE MOCLDY    64  55  72 S5        29.98R
STARKVILLE     CLOUDY    59  55  88 CALM      29.98R
TUPELO         TSTM      64  59  83 VRB7      29.94F
$$

MSZ040-058-010500-
CENTRAL MISSISSIPPI

CITY           SKY/WX    TMP DP  RH WIND       PRES   REMARKS
JACKSON INTL   CLEAR     68  57  68 SW9       29.99S
JACKSON HAWKNS CLEAR     70  56  61 SW8       30.00R
MERIDIAN KEY   CLEAR     67  57  70 SW7       29.99R
MERIDIAN NAS   PTCLDY    67  55  65 N5        29.99R
RAYMOND        FAIR      72  66  83 SW8       29.99S
VICKSBURG      PTCLDY    72  57  59 SW6       30.00R
$$

MSZ059>079-010500-
SOUTH MISSISSIPPI

CITY           SKY/WX    TMP DP  RH WIND       PRES   REMARKS
BROOKHAVEN     FAIR      70  59  68 S5        30.04S
HATTIESBURG    CLEAR     69  59  70 SW7       30.04S
MCCOMB         PTCLDY    65  58  78 SW5       30.04F
NATCHEZ        CLEAR     68  57  68 S6        30.03R
PINE BELT      CLEAR     68  57  68 S7        30.03F
$$

MSZ080>082-010500-
COASTAL MISSISSIPPI

CITY           SKY/WX    TMP DP  RH WIND       PRES   REMARKS
BILOXI         CLEAR     70  66  88 W5        30.06R
PASCAGOULA     CLEAR     70  65  84 SW3       30.07R
GULFPORT       CLEAR     70  62  76 CALM      30.06R
$$



USA.gov is the U.S. government's official web portal to all federal, state and local government web resources and services.